Tracking 26258 objects as of 3-Oct-2022
HD Live streaming from Space Station
objects crossing your sky now

CHINASAT 1E

Track CHINASAT 1E now!


NORAD ID: 53813
Int'l Code: 2022-112A
Perigee: 35,783.0 km
Apogee: 35,805.1 km
Inclination: 1.5 °
Period: 1,436.1 minutes
Semi major axis: 42165 km
RCS: Unknown
Launch date: September 13, 2022
Source: People's Republic of China (PRC)
Launch site: Wenchang Satellite Launch Center (WSC)
aabbcc
Your satellite tracking list
Your tracking list is empty




NASA's NSSDC Master Catalog

Two Line Element Set (TLE):
1 53813U 22112A   22275.93227828 -.00000159  00000-0  00000-0 0  9993
2 53813   1.4773 280.2104 0002628 248.6315 259.8049  1.00270636   280
Source of the keplerian elements: AFSPC